This demonstration page uses our WeatherBlox Daily Observations layout. Learn more.

Left ArrowRight Arrow

31.31129, -92.44514

Hourly Observations for August 12, 2018

Temp ( °F °C ) Dew Point ( °F °C ) Humidity (%) Winds ( mph kmh ) Pressure ( in mb ) Visibility ( mi km ) Precip ( " mm )
12:53 am 00:53 Clear 75 23.9 73 22.8 94 94 Calm 30.04 1017 8 13 0.00 0.00
1:53 am 01:53 Clear 75 23.9 73 22.8 94 94 Calm 30.02 1017 7 11 0.00 0.00
2:53 am 02:53 Clear with Mist and Fog 73 22.8 72 22.2 96 96 S 5 7 30.02 1017 6 10 0.00 0.00
3:53 am 03:53 Clear 74 23.3 73 22.8 97 97 Calm 30.02 1017 7 11 0.00 0.00
4:53 am 04:53 Clear 74 23.3 73 22.8 97 97 E 3 6 30.04 1017 8 13 0.00 0.00
5:53 am 05:53 Clear 75 23.9 73 22.8 94 94 ESE 3 6 30.04 1017 9 14 0.00 0.00
6:53 am 06:53 Partly Cloudy with Mist and Fog 74 23.3 73 22.8 97 97 SSE 3 6 30.07 1018 6 10 0.00 0.00
7:53 am 07:53 Mostly Sunny 76 24.4 74 23.3 94 94 SE 3 6 30.08 1019 7 11 0.00 0.00
8:53 am 08:53 Sunny 79 26.1 74 23.3 85 85 Calm 30.09 1019 8 13 0.00 0.00
9:53 am 09:53 Sunny 83 28.3 74 23.3 74 74 Calm 30.09 1019 9 14 0.00 0.00
10:53 am 10:53 Sunny 87 30.6 74 23.3 65 65 SW 5 7 30.10 1019 9 14 0.00 0.00
11:53 am 11:53 Mostly Sunny 89 31.7 74 23.3 61 61 VRB 3 6 30.09 1019 9 14 0.00 0.00
12:53 pm 12:53 Mostly Sunny 92 33.3 73 22.8 54 54 SSW 8 13 30.07 1018 8 13 0.00 0.00
1:53 pm 13:53 Sunny 94 34.4 72 22.2 49 49 VRB 7 11 30.04 1017 8 13 0.00 0.00
2:53 pm 14:53 Mostly Sunny 95 35 71 21.7 46 46 SW 12 19 30.02 1017 7 11 0.00 0.00
3:53 pm 15:53 Mostly Sunny 92 33.3 72 22.2 52 52 SSW 7 11 30.01 1016 7 11 0.00 0.00
4:53 pm 16:53 Partly Cloudy 91 32.8 71 21.7 52 52 SW 8 13 30.00 1016 7 11 0.00 0.00
5:09 pm 17:09 Partly Cloudy with Nearby Thunderstorms 86 30 72 22.2 63 63 SSW 9 15 30.00 1016 7 11 0.00 0.00
5:23 pm 17:23 Mostly Cloudy with Thunderstorms 84 28.9 72 22.2 67 67 WSW 16 26 30.00 1016 7 11 0.00 0.03
5:43 pm 17:43 Cloudy with Nearby Thunderstorms 77 25 67 19.4 71 71 WSW 10 17 30.03 1017 3 4 0.07 1.78
5:50 pm 17:50 Cloudy with Strong Thunderstorms 75 24 70 21 83 83 Calm 30.03 1017 1 2 0.11 2.79
5:57 pm 17:57 Mostly Cloudy with Thunderstorms 75 23.9 69 20.6 82 82 N 7 11 30.03 1017 3 5 0.00 0.03
6:19 pm 18:19 Partly Cloudy with Nearby Thunderstorms 75 23.9 71 21.7 88 88 N 8 13 30.03 1017 8 13 0.00 0.03
6:53 pm 18:53 Sunny 73 22.8 69 20.6 87 87 N 8 13 30.06 1018 9 14 0.00 0.03
7:53 pm 19:53 Sunny with Light Rain 73 22.8 69 20.6 87 87 Calm 30.05 1018 10 16 0.00 0.03
8:53 pm 20:53 Clear 73 22.8 70 21.1 90 90 Calm 30.09 1019 9 14 0.00 0.03
9:53 pm 21:53 Clear 72 22.2 69 20.6 91 91 Calm 30.10 1019 10 16 0.00 0.00
10:53 pm 22:53 Clear 72 22.2 69 20.6 91 91 ENE 3 6 30.09 1019 10 16 0.00 0.00
11:53 pm 23:53 Mostly Cloudy 72 22.2 69 20.6 91 91 Calm 30.09 1019 10 16 0.00 0.00

Powered by AerisWeather